User: anonymous
Location: Caltech
(34.1382°N, 118.1253°W)
Time: 09:48:11
(UTC-07:00)
Language:

Cosmos 1508 Rocket - Orbit

View from above orbital plane
View from above orbital plane
View from above satellite
View from above satellite

Ground track
Ground track

The orbit data is extracted from the following two-line orbital elements,

1 14484U 83111B   14210.13699603  .00036755  00000-0  53653-3 0  5818
2 14484 082.8403 288.5608 0210845 123.8619 315.3325 15.33832004578983
Epoch (UTC): 29 July 2014 03:17:16
Eccentricity: 0.0210845
inclination: 82.8403°
perigee height: 320 km
apogee height: 608 km
right ascension of ascending node: 288.5608°
argument of perigee: 123.8619°
revolutions per day: 15.33832004
mean anomaly at epoch: 315.3325°
orbit number at epoch: 57898

The dashed part of the orbit path shows where the satellite is in the earth's shadow,  

DLR